Location: Beaurevoir
(49.9971°N, 3.3085°E)
Time: 14:19:09
(UTC+00:00)

H-2A R/B - Pass Details

Date: 23 May 2024
Orbit: 553 x 571 km, 98.1° (Epoch: 18 June)

Event Time Altitude Azimuth Distance (km) Brightness Sun altitude
Rises 02:11:25 0° 9° (N) 2,760 8.1 -12.1°
Reaches altitude 10° 02:13:37 10° 4° (N) 1,857 7.0 -11.9°
Maximum altitude 02:17:28 46° 291° (WNW) 752 3.9 -11.6°
Enters shadow 02:20:18 17° 222° (SW) 1,457 4.8 -11.3°
